Starlink 3226

operational
NORAD ID: 49740 Int'l Des: 2021-115 Owner: SPXS Country: US Constellation: starlink
LEOCIRCULAR

Über Starlink 3226

Beschreibung wird geladen...

Live-Position

3D-Globus wird geladen...

Nächste Überflüge

Höhenverlauf

Altitude vs Time

uPlot chart will show altitude changes over time

Zweizeiliger Elementsatz

1 49740U 21115S 26035.10341031 -.00000410 00000-0 -76605-5 0 9999
2 49740 53.2191 299.8670 0001493 85.0972 275.0190 15.08836186230461
Epoch: 4. Feb. 2026 • Age: 24 hours

Aktueller Status

Höhe 544.6 km
Geschwindigkeit 7.60 km/s
Subsatellitenpunkt 49.78°N, 123.57°W
Startdatum 2. Dez. 2021
Alter 4.1 years
Typ internet

Technische Details

Klassifizierung Payload
Masse 290.00 kg
Trockenmasse 270.00 kg
Gesamtmasse 290.00 kg
Länge 0.20 m
Durchmesser 2.80 m
Spannweite 9.00 m
Form Box + pan
Hersteller SPXS
Bus-Typ Starlink
Phasenstatus In Orbit
Besitzer/Staat SPXS/US

Große Konstellationen

Loading constellations...